User: anonymous   Login
Location: Unspecified
(0.0000°N, 0.0000°E)
Time: 16:33:58
(UTC+00:00)
Language:

AGILE - Orbit

View from above orbital plane
View from above orbital plane
View from above satellite
View from above satellite

Ground track
Ground track

The orbit data is extracted from the following two-line orbital elements,

1 31135U 07013A   18140.01807276 +.00002148 +00000-0 +33181-4 0  9994
2 31135 002.4692 004.0670 0012635 206.7450 153.1952 15.30764791248010
Epoch (UTC): 20 May 2018 00:26:01
Eccentricity: 0.0012635
inclination: 2.4692°
perigee height: 465 km
apogee height: 482 km
right ascension of ascending node: 4.0670°
argument of perigee: 206.7450°
revolutions per day: 15.30764791
mean anomaly at epoch: 153.1952°
orbit number at epoch: 24801

The dashed part of the orbit path shows where the satellite is in the earth's shadow,  

DLR